TimeCST,TemperatureF,Dew PointF,Humidity,Sea Level PressureIn,VisibilityMPH,Wind Direction,Wind SpeedMPH,Gust SpeedMPH,PrecipitationIn,Events,Conditions,WindDirDegrees,DateUTC
12:11 AM,12.2,5.0,73,29.93,10.0,SW,16.1,-,N/A,,Overcast,220,2013-01-25 06:11:00
12:14 AM,12.2,5.0,73,29.93,10.0,SW,13.8,-,N/A,,Overcast,230,2013-01-25 06:14:00
12:19 AM,12.2,5.0,73,29.92,10.0,SW,18.4,-,N/A,,Overcast,230,2013-01-25 06:19:00
12:27 AM,10.4,5.0,79,29.92,10.0,SW,15.0,25.3,N/A,,Mostly Cloudy,230,2013-01-25 06:27:00
12:33 AM,10.4,3.2,73,29.92,10.0,SSW,11.5,-,N/A,,Mostly Cloudy,210,2013-01-25 06:33:00
12:47 AM,10.4,5.0,79,29.91,10.0,SW,10.4,-,N/A,,Overcast,220,2013-01-25 06:47:00
12:55 AM,11.1,4.6,75,29.91,10.0,SW,11.5,-,N/A,,Mostly Cloudy,230,2013-01-25 06:55:00
12:56 AM,10.4,5.0,79,29.91,10.0,SW,11.5,-,N/A,,Overcast,230,2013-01-25 06:56:00
12:59 AM,10.4,5.0,79,29.90,10.0,SW,10.4,-,N/A,,Overcast,230,2013-01-25 06:59:00
1:01 AM,10.4,5.0,79,29.90,10.0,SW,10.4,-,N/A,,Overcast,230,2013-01-25 07:01:00
1:06 AM,10.4,5.0,79,29.90,10.0,SW,11.5,-,N/A,,Overcast,230,2013-01-25 07:06:00
1:09 AM,12.2,5.0,73,29.90,9.0,WSW,10.4,-,N/A,,Overcast,240,2013-01-25 07:09:00
1:15 AM,12.2,5.0,73,29.90,9.0,West,9.2,-,N/A,,Overcast,260,2013-01-25 07:15:00
1:18 AM,12.2,5.0,73,29.90,10.0,West,9.2,-,N/A,Snow,Light Snow,260,2013-01-25 07:18:00
1:27 AM,12.2,5.0,73,29.90,10.0,WNW,17.3,20.7,N/A,Snow,Light Snow,290,2013-01-25 07:27:00
1:29 AM,12.2,5.0,73,29.90,10.0,WNW,18.4,24.2,N/A,,Overcast,290,2013-01-25 07:29:00
1:31 AM,12.2,5.0,73,29.90,10.0,WNW,18.4,24.2,N/A,,Overcast,290,2013-01-25 07:31:00
1:41 AM,12.2,5.0,73,29.90,10.0,West,18.4,27.6,N/A,,Overcast,280,2013-01-25 07:41:00
1:55 AM,11.3,3.9,72,29.90,10.0,West,20.7,28.8,0.00,,Overcast,280,2013-01-25 07:55:00
2:01 AM,10.4,3.2,73,29.90,10.0,WNW,19.6,26.5,N/A,Snow,Light Snow,290,2013-01-25 08:01:00
2:32 AM,10.4,3.2,73,29.91,9.0,WNW,20.7,27.6,N/A,,Overcast,290,2013-01-25 08:32:00
2:45 AM,10.4,3.2,73,29.91,7.0,WNW,23.0,-,N/A,,Overcast,300,2013-01-25 08:45:00
2:55 AM,10.0,2.5,72,29.91,5.0,WNW,23.0,31.1,0.00,,Haze,300,2013-01-25 08:55:00
2:59 AM,10.4,3.2,73,29.92,6.0,WNW,23.0,32.2,N/A,Snow,Light Snow,300,2013-01-25 08:59:00
3:22 AM,8.6,1.4,73,29.92,7.0,WNW,23.0,33.4,N/A,Snow,Light Snow,300,2013-01-25 09:22:00
3:23 AM,8.6,1.4,73,29.92,7.0,WNW,23.0,33.4,N/A,,Overcast,300,2013-01-25 09:23:00
3:25 AM,8.6,1.4,73,29.92,8.0,NW,19.6,33.4,N/A,,Overcast,310,2013-01-25 09:25:00
3:40 AM,8.6,1.4,73,29.92,7.0,WNW,24.2,33.4,N/A,,Overcast,300,2013-01-25 09:40:00
3:55 AM,8.1,0.7,72,29.93,8.0,NW,24.2,32.2,0.00,,Overcast,310,2013-01-25 09:55:00
4:01 AM,8.6,-0.4,67,29.94,6.0,NW,27.6,33.4,N/A,,Haze,310,2013-01-25 10:01:00
4:09 AM,6.8,-0.4,72,29.94,5.0,NW,23.0,33.4,N/A,,Haze,310,2013-01-25 10:09:00
4:12 AM,6.8,-0.4,72,29.94,6.0,NW,21.9,31.1,N/A,,Haze,310,2013-01-25 10:12:00
4:22 AM,6.8,-0.4,72,29.94,4.0,NW,21.9,32.2,N/A,,Haze,310,2013-01-25 10:22:00
4:27 AM,6.8,-0.4,72,29.95,3.0,NW,24.2,28.8,N/A,,Haze,310,2013-01-25 10:27:00
4:29 AM,6.8,-0.4,72,29.95,4.0,NW,23.0,28.8,N/A,,Haze,310,2013-01-25 10:29:00
4:34 AM,5.0,-0.4,78,29.95,5.0,NW,23.0,28.8,N/A,,Haze,320,2013-01-25 10:34:00
4:35 AM,5.0,-0.4,78,29.95,6.0,NW,24.2,29.9,N/A,,Haze,320,2013-01-25 10:35:00
4:41 AM,5.0,-0.4,78,29.95,8.0,NW,25.3,35.7,N/A,,Overcast,320,2013-01-25 10:41:00
4:43 AM,5.0,-2.2,72,29.95,8.0,NW,21.9,35.7,N/A,,Overcast,320,2013-01-25 10:43:00
4:45 AM,5.0,-2.2,72,29.96,8.0,NW,23.0,35.7,N/A,,Overcast,320,2013-01-25 10:45:00
4:55 AM,4.3,-2.6,73,29.96,10.0,NW,20.7,31.1,N/A,,Overcast,320,2013-01-25 10:55:00
4:57 AM,3.2,-2.2,78,29.96,10.0,NW,24.2,27.6,N/A,,Overcast,310,2013-01-25 10:57:00
5:01 AM,3.2,-4.0,72,29.96,10.0,NW,21.9,-,N/A,,Overcast,310,2013-01-25 11:01:00
5:03 AM,3.2,-4.0,72,29.97,10.0,NW,23.0,-,N/A,,Overcast,310,2013-01-25 11:03:00
5:55 AM,1.0,-6.9,69,30.01,10.0,NW,24.2,31.1,N/A,,Scattered Clouds,320,2013-01-25 11:55:00
7:55 AM,-3.5,-11.2,69,30.10,10.0,NNW,17.3,-,N/A,,Overcast,340,2013-01-25 13:55:00
8:05 AM,-4.0,-11.2,71,30.08,10.0,NNW,13.8,23.0,N/A,,Partly Cloudy,340,2013-01-25 14:05:00
8:55 AM,-4.4,-12.3,69,30.14,10.0,NNW,13.8,-,N/A,,Partly Cloudy,340,2013-01-25 14:55:00
9:55 AM,-3.1,-11.7,67,30.19,10.0,North,17.3,-,N/A,,Partly Cloudy,350,2013-01-25 15:55:00
10:55 AM,-2.7,-11.0,68,30.23,10.0,North,19.6,-,N/A,,Scattered Clouds,360,2013-01-25 16:55:00
11:55 AM,-2.4,-10.3,69,30.26,10.0,North,16.1,-,N/A,,Scattered Clouds,350,2013-01-25 17:55:00
12:55 PM,-1.7,-9.8,68,30.27,6.0,North,15.0,-,N/A,,Haze,350,2013-01-25 18:55:00
1:55 PM,-0.9,-8.9,69,30.26,8.0,North,13.8,-,N/A,,Mostly Cloudy,360,2013-01-25 19:55:00
2:07 PM,-0.4,-9.4,66,30.26,9.0,North,12.7,-,N/A,,Overcast,360,2013-01-25 20:07:00
2:21 PM,-0.4,-9.4,66,30.27,10.0,North,13.8,-,N/A,,Overcast,350,2013-01-25 20:21:00
2:27 PM,-0.4,-9.4,66,30.28,10.0,North,15.0,18.4,N/A,,Mostly Cloudy,350,2013-01-25 20:27:00
2:47 PM,-0.4,-9.4,66,30.29,10.0,North,12.7,-,N/A,,Mostly Cloudy,350,2013-01-25 20:47:00
2:49 PM,-0.4,-9.4,66,30.29,10.0,North,12.7,-,N/A,,Mostly Cloudy,350,2013-01-25 20:49:00
2:53 PM,-0.4,-9.4,66,30.28,10.0,NNW,12.7,-,N/A,,Mostly Cloudy,340,2013-01-25 20:53:00
2:55 PM,-0.9,-9.4,67,30.28,10.0,North,11.5,-,N/A,,Mostly Cloudy,350,2013-01-25 20:55:00
3:10 PM,-0.4,-9.4,66,30.29,10.0,NNW,11.5,-,N/A,,Mostly Cloudy,340,2013-01-25 21:10:00
3:17 PM,-0.4,-9.4,66,30.29,9.0,North,12.7,-,N/A,,Mostly Cloudy,350,2013-01-25 21:17:00
3:26 PM,-0.4,-9.4,66,30.28,9.0,North,11.5,-,N/A,,Scattered Clouds,360,2013-01-25 21:26:00
3:55 PM,-1.8,-9.9,68,30.28,10.0,North,9.2,-,N/A,,Scattered Clouds,350,2013-01-25 21:55:00
4:55 PM,-2.7,-11.2,67,30.29,10.0,North,5.8,-,N/A,,Clear,10,2013-01-25 22:55:00
5:55 PM,-5.3,-12.3,72,30.32,10.0,NNW,5.8,-,N/A,,Clear,340,2013-01-25 23:55:00
6:55 PM,-6.7,-13.5,72,30.30,10.0,Calm,Calm,-,N/A,,Clear,0,2013-01-26 00:55:00
7:55 PM,-8.5,-14.6,75,30.30,10.0,Calm,Calm,-,N/A,,Clear,0,2013-01-26 01:55:00
8:55 PM,-10.1,-15.7,76,30.32,10.0,Calm,Calm,-,N/A,,Clear,0,2013-01-26 02:55:00
9:55 PM,-10.7,-17.9,71,30.31,10.0,Calm,Calm,-,N/A,,Clear,0,2013-01-26 03:55:00
10:55 PM,-9.9,-16.1,74,30.33,10.0,Calm,Calm,-,N/A,,Clear,0,2013-01-26 04:55:00
11:55 PM,-10.5,-16.4,75,30.31,10.0,South,4.6,-,N/A,,Clear,180,2013-01-26 05:55:00